EA5AFP-10 Weather Reports


Display with metric or nautical units.
time (UTC)temp
F
wind
direction
speed
MPH
gust
MPH
rain 1hr
in
rain 24hr
in
rain mn
in
humidity
%
barometer
mb
20260831121910 84 112 9.0 12.0 0.00 0.00 0.00 7 1013.5
20260831121444 84 112 9.0 12.0 0.00 0.00 0.00 7 1013.5
20260831121010 83 112 10.0 13.0 0.00 0.00 0.00 7 1013.6
20260831120607 83 112 11.0 15.0 0.00 0.00 0.00 7 1013.5
20260831120125 85 112 7.0 10.0 0.00 0.00 0.00 7 1013.7
20260831115700 84 112 10.0 12.0 0.00 0.00 0.00 7 1013.6
20260831115455 84 112 9.0 12.0 0.00 0.00 0.00 7 1013.6
20260831115045 84 90 6.0 9.0 0.00 0.00 0.00 7 1013.6
20260831114620 84 112 9.0 12.0 0.00 0.00 0.00 7 1013.5
20260831114132 85 90 6.0 9.0 0.00 0.00 0.00 7 1013.6
20260831113752 84 90 6.0 12.0 0.00 0.00 0.00 7 1013.5
20260831113715 84 90 6.0 12.0 0.00 0.00 0.00 7 1013.5
20260831113250 84 90 6.0 11.0 0.00 0.00 0.00 7 1013.7
20260831112758 83 90 3.0 6.0 0.00 0.00 0.00 7 1013.7
20260831112755 83 90 3.0 6.0 0.00 0.00 0.00 7 1013.7
20260831112405 84 90 6.0 8.0 0.00 0.00 0.00 7 1013.7
20260831112256 84 112 6.0 9.0 0.00 0.00 0.00 7 1013.7
20260831112005 83 90 7.0 10.0 0.00 0.00 0.00 7 1013.8
20260831111548 83 112 7.0 10.0 0.00 0.00 0.00 7 1013.7
20260831111359 83 112 9.0 12.0 0.00 0.00 0.00 7 1013.8
20260831111055 83 112 7.0 11.0 0.00 0.00 0.00 7 1013.9
20260831110605 83 90 7.0 11.0 0.00 0.00 0.00 7 1013.9
20260831110532 83 90 7.0 11.0 0.00 0.00 0.00 7 1013.9
20260831110117 84 112 6.0 9.0 0.00 0.00 0.00 7 1013.9
20260831105705 83 112 6.0 10.0 0.00 0.00 0.00 7 1013.9
20260831105433 83 112 6.0 8.0 0.00 0.00 0.00 7 1014.1
20260831104947 83 90 6.0 9.0 0.00 0.00 0.00 7 1014.1
20260831104640 83 112 5.0 8.0 0.00 0.00 0.00 7 1014.1
20260831104511 83 135 6.0 10.0 0.00 0.00 0.00 7 1014.2
20260831104025 84 112 6.0 10.0 0.00 0.00 0.00 7 1014.2
20260831103640 82 90 1.0 3.0 0.00 0.00 0.00 7 1014.1
20260831103608 82 90 1.0 3.0 0.00 0.00 0.00 7 1014.1
20260831103143 82 90 6.0 10.0 0.00 0.00 0.00 7 1014.2
20260831102650 83 67 7.0 12.0 0.00 0.00 0.00 7 1014.2
20260831102648 83 67 7.0 12.0 0.00 0.00 0.00 7 1014.2
20260831102236 82 112 6.0 8.0 0.00 0.00 0.00 7 1014.2
20260831101835 83 112 6.0 9.0 0.00 0.00 0.00 7 1014.1
20260831101345 83 112 6.0 8.0 0.00 0.00 0.00 7 1014.0
20260831100942 83 112 7.0 10.0 0.00 0.00 0.00 7 1014.2
20260831100519 82 90 2.0 3.0 0.00 0.00 0.00 7 1014.1
20260831100111 82 112 6.0 9.0 0.00 0.00 0.00 7 1014.2
20260831095702 82 112 6.0 8.0 0.00 0.00 0.00 7 1014.2
20260831095420 82 112 6.0 8.0 0.00 0.00 0.00 7 1014.3
20260831094957 83 112 6.0 10.0 0.00 0.00 0.00 7 1014.2
20260831094508 82 112 6.0 10.0 0.00 0.00 0.00 7 1014.2
20260831094038 83 112 5.0 8.0 0.00 0.00 0.00 7 1014.3
20260831093620 82 90 5.0 8.0 0.00 0.00 0.00 7 1014.3
20260831093155 83 112 3.0 4.0 0.00 0.00 0.00 7 1014.2
20260831092700 82 112 6.0 9.0 0.00 0.00 0.00 7 1014.0
20260831092316 82 90 7.0 11.0 0.00 0.00 0.00 7 1014.0
20260831092313 82 112 8.0 11.0 0.00 0.00 0.00 7 1014.0
20260831091905 81 90 6.0 10.0 0.00 0.00 0.00 7 1014.2
20260831091425 82 112 7.0 10.0 0.00 0.00 0.00 7 1013.9
20260831091006 82 112 5.0 9.0 0.00 0.00 0.00 7 1013.9
20260831090547 82 112 3.0 6.0 0.00 0.00 0.00 7 1014.0
20260831090120 81 90 4.0 8.0 0.00 0.00 0.00 7 1014.0
20260831085657 81 90 5.0 9.0 0.00 0.00 0.00 7 1013.8
20260831085449 81 112 6.0 8.0 0.00 0.00 0.00 7 1013.9
20260831085029 82 90 2.0 6.0 0.00 0.00 0.00 7 1013.7
20260831084610 81 90 3.0 6.0 0.00 0.00 0.00 7 1013.9
20260831084126 81 90 2.0 3.0 0.00 0.00 0.00 7 1013.8
20260831083710 80 0 0.0 1.0 0.00 0.00 0.00 7 1013.6
20260831083245 80 67 1.0 3.0 0.00 0.00 0.00 7 1013.6
20260831082750 79 0 0.0 1.0 0.00 0.00 0.00 8 1013.5
20260831082442 79 67 3.0 4.0 0.00 0.00 0.00 8 1013.6
20260831081944 79 90 3.0 4.0 0.00 0.00 0.00 8 1013.5
20260831081526 79 90 3.0 6.0 0.00 0.00 0.00 8 1013.5
20260831081043 80 202 1.0 2.0 0.00 0.00 0.00 7 1013.4
20260831080626 79 0 0.0 1.0 0.00 0.00 0.00 8 1013.2
20260831080201 79 0 1.0 2.0 0.00 0.00 0.00 8 1013.3
20260831075706 77 0 0.0 0.0 0.00 0.00 0.00 8 1013.3
20260831075306 77 0 0.0 0.0 0.00 0.00 0.00 8 1013.3
20260831074842 76 270 1.0 2.0 0.00 0.00 0.00 8 1013.3
20260831074423 76 270 1.0 1.0 0.00 0.00 0.00 8 1013.3
20260831073939 76 292 1.0 2.0 0.00 0.00 0.00 8 1013.2
20260831073522 75 0 0.0 0.0 0.00 0.00 0.00 8 1013.3
20260831073057 75 292 1.0 2.0 0.00 0.00 0.00 8 1013.3
20260831072602 75 292 0.0 2.0 0.00 0.00 0.00 8 1013.1
20260831072359 75 270 1.0 2.0 0.00 0.00 0.00 8 1013.3
20260831071937 74 292 1.0 1.0 0.00 0.00 0.00 9 1013.3
20260831071523 74 270 0.0 1.0 0.00 0.00 0.00 9 1013.3
20260831071053 73 270 1.0 1.0 0.00 0.00 0.00 9 1013.2
20260831070635 73 292 0.0 1.0 0.00 0.00 0.00 9 1013.2
20260831070209 73 292 0.0 1.0 0.00 0.00 0.00 9 1013.1
20260831065744 73 315 0.0 1.0 0.00 0.00 0.00 9 1013.0
20260831065412 73 0 0.0 0.0 0.00 0.00 0.00 9 1013.1
20260831065358 73 315 1.0 2.0 0.00 0.00 0.00 9 1013.1
20260831064944 73 315 0.0 1.0 0.00 0.00 0.00 9 1013.0
20260831064532 73 0 0.0 0.0 0.00 0.00 0.00 9 1013.0
20260831064503 73 0 0.0 0.0 0.00 0.00 0.00 9 1013.0
20260831064100 72 0 0.0 0.0 0.00 0.00 0.00 9 1012.9
20260831063642 72 0 0.0 0.0 0.00 0.00 0.00 9 1012.8
20260831063215 72 0 0.0 0.0 0.00 0.00 0.00 9 1012.8
20260831062751 72 0 0.0 0.0 0.00 0.00 0.00 9 1012.8
20260831062505 72 0 0.0 0.0 0.00 0.00 0.00 9 1012.7
20260831062300 71 0 0.0 0.0 0.00 0.00 0.00 9 1012.7
20260831062009 71 0 0.0 1.0 0.00 0.00 0.00 9 1012.6
20260831061521 71 0 0.0 0.0 0.00 0.00 0.00 9 1012.5
20260831061437 71 0 0.0 0.0 0.00 0.00 0.00 9 1012.5
20260831061102 71 0 0.0 0.0 0.00 0.00 0.00 9 1012.5
20260831060613 71 0 0.0 0.0 0.00 0.00 0.00 9 1012.5
20260831060547 70 0 0.0 0.0 0.00 0.00 0.00 9 1012.4
20260831060122 70 0 0.0 0.0 0.00 0.00 0.00 9 1012.4
20260831055656 70 0 0.0 0.0 0.00 0.00 0.00 9 1012.3
20260831055354 70 270 0.0 1.0 0.00 0.00 0.00 9 1012.4
20260831055300 70 270 1.0 1.0 0.00 0.00 0.00 9 1012.2
20260831054855 70 270 0.0 1.0 0.00 0.00 0.00 9 1012.4
20260831054435 70 270 1.0 2.0 0.00 0.00 0.00 9 1012.5
20260831054010 70 270 3.0 3.0 0.00 0.00 0.00 9 1012.2
20260831053520 70 292 2.0 3.0 0.00 0.00 0.00 9 1012.1
20260831053107 70 270 3.0 4.0 0.00 0.00 0.00 9 1012.1
20260831052701 71 292 2.0 3.0 0.00 0.00 0.00 9 1012.1
20260831052446 71 292 3.0 3.0 0.00 0.00 0.00 9 1012.2
20260831052042 70 292 2.0 2.0 0.00 0.00 0.00 9 1012.1
20260831051529 70 292 2.0 2.0 0.00 0.00 0.00 9 1012.2
20260831051052 71 292 3.0 3.0 0.00 0.00 0.00 9 1012.2
20260831050601 71 292 3.0 3.0 0.00 0.00 0.00 9 1012.1
20260831050529 71 292 3.0 3.0 0.00 0.00 0.00 9 1012.1
20260831050113 70 292 2.0 3.0 0.00 0.00 0.00 9 1012.2
20260831045702 71 292 3.0 3.0 0.00 0.00 0.00 9 1012.2
20260831045424 71 292 3.0 3.0 0.00 0.00 0.00 9 1012.1
20260831045015 71 292 3.0 4.0 0.00 0.00 0.00 9 1012.2
20260831044530 71 292 3.0 4.0 0.00 0.00 0.00 9 1012.1
20260831044057 71 292 2.0 3.0 0.00 0.00 0.00 9 1012.1
20260831043608 71 292 3.0 4.0 0.00 0.00 0.00 9 1012.2
20260831043121 71 292 3.0 4.0 0.00 0.00 0.00 9 1012.0
20260831042706 70 270 3.0 4.0 0.00 0.00 0.00 9 1012.0
20260831042435 70 270 2.0 2.0 0.00 0.00 0.00 9 1012.0
20260831042231 70 270 2.0 3.0 0.00 0.00 0.00 9 1012.1
20260831041830 70 270 3.0 3.0 0.00 0.00 0.00 9 1012.1
20260831041435 70 270 2.0 2.0 0.00 0.00 0.00 9 1012.1
20260831041403 70 270 2.0 3.0 0.00 0.00 0.00 9 1012.1
20260831040945 70 270 2.0 3.0 0.00 0.00 0.00 9 1012.1
20260831040513 70 270 2.0 2.0 0.00 0.00 0.00 9 1012.2
20260831040112 71 270 2.0 2.0 0.00 0.00 0.00 9 1012.1
20260831035703 71 292 3.0 3.0 0.00 0.00 0.00 9 1012.2
20260831035347 71 270 3.0 3.0 0.00 0.00 0.00 9 1012.2
20260831034932 71 292 3.0 3.0 0.00 0.00 0.00 9 1012.3
20260831034442 71 270 2.0 2.0 0.00 0.00 0.00 9 1012.2
20260831034036 70 292 1.0 2.0 0.00 0.00 0.00 9 1012.1
20260831033627 70 292 2.0 3.0 0.00 0.00 0.00 9 1012.0
20260831033209 70 292 2.0 2.0 0.00 0.00 0.00 9 1012.1
20260831032759 70 292 3.0 3.0 0.00 0.00 0.00 9 1012.0
20260831032506 70 292 2.0 2.0 0.00 0.00 0.00 9 1012.0
20260831032313 71 292 3.0 3.0 0.00 0.00 0.00 9 1012.0
20260831031903 71 292 2.0 3.0 0.00 0.00 0.00 9 1012.2
20260831031545 71 270 2.0 2.0 0.00 0.00 0.00 9 1012.1
20260831031451 70 270 1.0 2.0 0.00 0.00 0.00 9 1012.0
20260831031017 71 270 1.0 1.0 0.00 0.00 0.00 9 1012.0
20260831030647 71 270 1.0 2.0 0.00 0.00 0.00 9 1012.1
20260831030603 71 270 2.0 2.0 0.00 0.00 0.00 9 1012.0
20260831030155 71 0 0.0 1.0 0.00 0.00 0.00 9 1012.1
20260831025704 71 270 0.0 1.0 0.00 0.00 0.00 9 1012.0
20260831025516 71 270 0.0 1.0 0.00 0.00 0.00 9 1012.0
20260831025411 72 270 0.0 1.0 0.00 0.00 0.00 9 1012.1
20260831025040 72 270 1.0 2.0 0.00 0.00 0.00 9 1012.1
20260831024528 72 0 0.0 1.0 0.00 0.00 0.00 9 1011.9
20260831024133 72 270 0.0 1.0 0.00 0.00 0.00 9 1012.0
20260831023638 72 270 1.0 2.0 0.00 0.00 0.00 9 1012.0
20260831023211 72 270 2.0 3.0 0.00 0.00 0.00 9 1012.1
20260831022746 72 270 2.0 2.0 0.00 0.00 0.00 9 1012.2
20260831022353 72 270 2.0 3.0 0.00 0.00 0.00 9 1012.2
20260831021933 72 270 2.0 2.0 0.00 0.00 0.00 9 1012.2
20260831021515 72 270 3.0 3.0 0.00 0.00 0.00 9 1012.1
20260831021030 73 292 2.0 3.0 0.00 0.00 0.00 9 1012.1
20260831020613 72 247 3.0 3.0 0.00 0.00 0.00 9 1012.2
20260831020148 73 270 2.0 2.0 0.00 0.00 0.00 9 1012.2
20260831015653 73 292 2.0 2.0 0.00 0.00 0.00 9 1012.2
20260831015453 73 292 2.0 2.0 0.00 0.00 0.00 9 1012.1
20260831015002 73 270 2.0 2.0 0.00 0.00 0.00 9 1012.2
20260831014543 73 292 1.0 2.0 0.00 0.00 0.00 9 1012.1
20260831014107 73 292 2.0 2.0 0.00 0.00 0.00 9 1012.3
20260831013705 73 292 2.0 2.0 0.00 0.00 0.00 9 1012.2
20260831013222 73 0 0.0 0.0 0.00 0.00 0.00 9 1012.2
20260831012758 73 0 0.0 0.0 0.00 0.00 0.00 9 1012.2
20260831012423 73 0 0.0 0.0 0.00 0.00 0.00 9 1012.2
20260831011959 73 292 2.0 2.0 0.00 0.00 0.00 9 1012.2
20260831011507 73 292 1.0 2.0 0.00 0.00 0.00 9 1012.2
20260831011042 73 0 0.0 0.0 0.00 0.00 0.00 9 1012.2
20260831010622 73 0 0.0 0.0 0.00 0.00 0.00 9 1012.3
20260831005703 72 0 0.0 0.0 0.00 0.00 0.00 9 1012.2
20260831005404 72 0 0.0 0.0 0.00 0.00 0.00 9 1012.2
20260831004909 73 0 0.0 0.0 0.00 0.00 0.00 9 1012.1
20260831004436 72 0 0.0 0.0 0.00 0.00 0.00 9 1012.3
20260831004034 73 0 0.0 0.0 0.00 0.00 0.00 9 1012.1
20260831003614 73 247 0.0 2.0 0.00 0.00 0.00 9 1012.2
20260831003149 72 0 0.0 0.0 0.00 0.00 0.00 9 1012.1
20260831002654 73 0 0.0 1.0 0.00 0.00 0.00 9 1012.1
20260831002541 73 0 0.0 1.0 0.00 0.00 0.00 9 1012.1
20260831002427 73 0 0.0 1.0 0.00 0.00 0.00 9 1012.1
20260831002021 73 0 0.0 0.0 0.00 0.00 0.00 9 1012.0
20260831001624 73 0 0.0 0.0 0.00 0.00 0.00 9 1012.1
20260831001547 73 0 0.0 0.0 0.00 0.00 0.00 9 1012.2
20260831001106 73 0 0.0 0.0 0.00 0.00 0.00 9 1012.0
20260831000623 73 315 0.0 2.0 0.00 0.00 0.00 9 1012.1
20260831000206 73 315 1.0 2.0 0.00 0.00 0.00 9 1012.3
20260830235753 73 315 0.0 1.0 0.00 0.00 0.00 9 1012.2
20260830235543 73 315 1.0 1.0 0.00 0.00 0.00 9 1012.2
20260830235114 74 315 1.0 3.0 0.00 0.00 0.00 9 1012.3
20260830234700 74 315 1.0 3.0 0.00 0.00 0.00 9 1012.2
20260830234629 74 315 1.0 3.0 0.00 0.00 0.00 9 1012.2
20260830234207 74 292 2.0 2.0 0.00 0.00 0.00 9 1012.2
20260830233719 74 292 2.0 2.0 0.00 0.00 0.00 9 1012.2
20260830233250 74 315 2.0 3.0 0.00 0.00 0.00 9 1012.2
20260830232800 74 292 2.0 3.0 0.00 0.00 0.00 9 1012.3
20260830232621 74 315 1.0 2.0 0.00 0.00 0.00 9 1012.2
20260830232157 75 315 2.0 3.0 0.00 0.00 0.00 9 1012.1
20260830231741 75 292 4.0 6.0 0.00 0.00 0.00 9 1012.1
20260830231710 75 292 5.0 6.0 0.00 0.00 0.00 9 1012.1
20260830231230 75 315 3.0 4.0 0.00 0.00 0.00 9 1012.1
20260830230822 75 292 3.0 4.0 0.00 0.00 0.00 9 1012.1
20260830230800 75 292 3.0 4.0 0.00 0.00 0.00 9 1012.2
20260830230329 75 292 2.0 3.0 0.00 0.00 0.00 9 1012.1
20260830225837 75 315 2.0 3.0 0.00 0.00 0.00 8 1012.2
20260830225835 75 315 2.0 3.0 0.00 0.00 0.00 8 1012.2
20260830225448 75 292 3.0 4.0 0.00 0.00 0.00 8 1012.2
20260830225306 75 315 3.0 4.0 0.00 0.00 0.00 8 1012.3
20260830225007 75 315 2.0 3.0 0.00 0.00 0.00 8 1012.1
20260830224518 75 315 3.0 3.0 0.00 0.00 0.00 8 1012.1
20260830224421 75 315 3.0 4.0 0.00 0.00 0.00 8 1012.0
20260830224021 75 292 3.0 4.0 0.00 0.00 0.00 8 1012.0
20260830223616 75 315 3.0 4.0 0.00 0.00 0.00 8 1012.1
20260830223557 75 315 3.0 3.0 0.00 0.00 0.00 8 1012.1
20260830223145 75 315 3.0 4.0 0.00 0.00 0.00 8 1012.2
20260830222717 76 292 6.0 9.0 0.00 0.00 0.00 8 1012.1
20260830222714 76 292 6.0 9.0 0.00 0.00 0.00 8 1012.1
20260830222403 76 292 5.0 6.0 0.00 0.00 0.00 8 1012.1
20260830221944 76 292 6.0 6.0 0.00 0.00 0.00 8 1012.0
20260830221525 76 292 5.0 6.0 0.00 0.00 0.00 8 1012.0
20260830221040 75 315 5.0 6.0 0.00 0.00 0.00 8 1012.0
20260830220624 76 292 4.0 6.0 0.00 0.00 0.00 8 1011.9
20260830220158 77 292 6.0 6.0 0.00 0.00 0.00 8 1012.0
20260830215704 77 270 7.0 9.0 0.00 0.00 0.00 8 1012.0
20260830215508 77 270 7.0 9.0 0.00 0.00 0.00 8 1011.9
20260830215012 77 292 5.0 6.0 0.00 0.00 0.00 8 1012.0
20260830214524 76 292 5.0 6.0 0.00 0.00 0.00 8 1012.0
20260830214107 75 292 3.0 3.0 0.00 0.00 0.00 8 1011.9
20260830213607 75 292 4.0 6.0 0.00 0.00 0.00 8 1011.8
20260830213117 75 292 3.0 4.0 0.00 0.00 0.00 8 1011.7
20260830212704 76 315 3.0 6.0 0.00 0.00 0.00 8 1011.7
20260830212357 76 292 4.0 6.0 0.00 0.00 0.00 8 1011.8
20260830211938 76 315 3.0 6.0 0.00 0.00 0.00 8 1011.8
20260830211650 76 292 4.0 6.0 0.00 0.00 0.00 8 1011.7
20260830211519 76 292 4.0 6.0 0.00 0.00 0.00 8 1011.7
20260830211035 76 292 3.0 4.0 0.00 0.00 0.00 8 1011.6
20260830210650 76 315 3.0 4.0 0.00 0.00 0.00 8 1011.7
20260830210618 76 315 3.0 4.0 0.00 0.00 0.00 8 1011.7
20260830210153 77 292 3.0 4.0 0.00 0.00 0.00 8 1011.6
20260830205658 77 315 5.0 6.0 0.00 0.00 0.00 8 1011.3
20260830205603 77 315 5.0 6.0 0.00 0.00 0.00 8 1011.3
20260830205530 77 315 5.0 6.0 0.00 0.00 0.00 8 1011.3
20260830205049 77 315 5.0 6.0 0.00 0.00 0.00 8 1011.3
20260830204616 77 337 4.0 6.0 0.00 0.00 0.00 8 1011.2
20260830204600 77 337 4.0 6.0 0.00 0.00 0.00 8 1011.2
20260830204129 77 315 4.0 4.0 0.00 0.00 0.00 8 1011.4
20260830203745 77 315 6.0 8.0 0.00 0.00 0.00 8 1011.1
20260830203710 77 315 6.0 8.0 0.00 0.00 0.00 8 1011.1
20260830203245 77 315 5.0 8.0 0.00 0.00 0.00 8 1011.1
20260830202754 77 315 6.0 8.0 0.00 0.00 0.00 8 1011.0
20260830202750 77 315 6.0 8.0 0.00 0.00 0.00 8 1011.0
20260830202339 77 292 5.0 6.0 0.00 0.00 0.00 8 1010.8
20260830201921 78 315 6.0 9.0 0.00 0.00 0.00 8 1010.8
20260830201459 78 292 7.0 9.0 0.00 0.00 0.00 8 1010.6
20260830201034 78 337 6.0 9.0 0.00 0.00 0.00 8 1010.5
20260830200604 78 292 7.0 9.0 0.00 0.00 0.00 8 1010.6
20260830200119 78 315 6.0 8.0 0.00 0.00 0.00 8 1010.5
20260830195654 78 292 6.0 8.0 0.00 0.00 0.00 7 1010.5
20260830195438 78 292 6.0 8.0 0.00 0.00 0.00 7 1010.4
20260830194956 78 292 6.0 9.0 0.00 0.00 0.00 7 1010.4
20260830194506 79 292 7.0 10.0 0.00 0.00 0.00 7 1010.3
20260830194033 79 292 6.0 9.0 0.00 0.00 0.00 7 1010.1
20260830193539 79 337 6.0 8.0 0.00 0.00 0.00 7 1010.0
20260830193113 79 292 6.0 8.0 0.00 0.00 0.00 7 1010.0
20260830192702 80 315 6.0 9.0 0.00 0.00 0.00 7 1009.8
20260830192359 80 315 6.0 8.0 0.00 0.00 0.00 7 1009.9
20260830191922 80 292 6.0 8.0 0.00 0.00 0.00 7 1009.7
20260830191438 80 315 5.0 6.0 0.00 0.00 0.00 6 1009.6
20260830191014 80 292 6.0 9.0 0.00 0.00 0.00 6 1009.6
20260830190544 81 292 5.0 6.0 0.00 0.00 0.00 6 1009.6
20260830190059 81 292 4.0 6.0 0.00 0.00 0.00 6 1009.5
20260830185634 81 292 2.0 3.0 0.00 0.00 0.00 6 1009.5
20260830185408 81 292 2.0 3.0 0.00 0.00 0.00 6 1009.4
20260830185006 82 135 0.0 1.0 0.00 0.00 0.00 6 1009.5
20260830184530 82 0 0.0 1.0 0.00 0.00 0.00 6 1009.3
20260830184059 82 0 0.0 1.0 0.00 0.00 0.00 6 1009.3
20260830183657 82 0 0.0 0.0 0.00 0.00 0.00 6 1009.3
20260830183641 82 0 0.0 0.0 0.00 0.00 0.00 6 1009.2
20260830183214 82 0 0.0 0.0 0.00 0.00 0.00 6 1009.4
20260830182751 82 90 0.0 1.0 0.00 0.00 0.00 6 1009.1
20260830182749 82 90 0.0 1.0 0.00 0.00 0.00 6 1009.1
20260830182449 83 67 2.0 2.0 0.00 0.00 0.00 6 1009.2
20260830182319 83 90 2.0 2.0 0.00 0.00 0.00 6 1009.2
20260830181950 84 0 0.0 0.0 0.00 0.00 0.00 6 1009.3
20260830181442 84 0 0.0 1.0 0.00 0.00 0.00 6 1009.1
20260830181044 85 0 0.0 1.0 0.00 0.00 0.00 6 1009.2
20260830180614 86 0 0.0 0.0 0.00 0.00 0.00 5 1009.1
20260830180556 86 0 0.0 1.0 0.00 0.00 0.00 5 1009.0
20260830180129 86 0 0.0 0.0 0.00 0.00 0.00 5 1009.1
20260830175704 85 90 0.0 1.0 0.00 0.00 0.00 6 1009.0
20260830175535 85 90 0.0 1.0 0.00 0.00 0.00 6 1009.0
20260830175049 86 90 3.0 4.0 0.00 0.00 0.00 5 1009.0
20260830174741 86 112 2.0 4.0 0.00 0.00 0.00 5 1008.9
20260830174555 86 112 3.0 4.0 0.00 0.00 0.00 5 1008.8
20260830174129 86 90 3.0 6.0 0.00 0.00 0.00 5 1008.8
20260830173745 86 112 6.0 9.0 0.00 0.00 0.00 5 1008.7
20260830173710 86 112 6.0 9.0 0.00 0.00 0.00 5 1008.7
20260830173245 86 90 6.0 6.0 0.00 0.00 0.00 5 1008.8
20260830172753 87 112 4.0 8.0 0.00 0.00 0.00 5 1008.9
20260830172750 87 112 4.0 8.0 0.00 0.00 0.00 5 1008.9
20260830172404 87 135 4.0 6.0 0.00 0.00 0.00 5 1008.9
20260830172248 87 112 3.0 6.0 0.00 0.00 0.00 5 1008.9
20260830171942 87 90 5.0 6.0 0.00 0.00 0.00 5 1008.9
20260830171452 87 112 7.0 11.0 0.00 0.00 0.00 5 1008.8
20260830171324 87 67 6.0 9.0 0.00 0.00 0.00 5 1008.8
20260830171023 87 112 5.0 6.0 0.00 0.00 0.00 5 1008.8
20260830170523 88 112 5.0 9.0 0.00 0.00 0.00 5 1008.8
20260830170458 88 90 4.0 9.0 0.00 0.00 0.00 5 1008.8
20260830170051 89 112 6.0 9.0 0.00 0.00 0.00 4 1008.9
20260830165643 89 135 3.0 4.0 0.00 0.00 0.00 4 1008.7
20260830165058 89 90 6.0 10.0 0.00 0.00 0.00 4 1008.8
20260830164637 89 90 8.0 11.0 0.00 0.00 0.00 4 1008.8
20260830164227 89 112 7.0 10.0 0.00 0.00 0.00 5 1008.9
20260830164126 89 112 7.0 10.0 0.00 0.00 0.00 5 1008.8
20260830163824 89 67 8.0 11.0 0.00 0.00 0.00 5 1008.8
20260830163328 89 112 9.0 13.0 0.00 0.00 0.00 5 1008.7
20260830163215 89 112 5.0 10.0 0.00 0.00 0.00 5 1008.8
20260830162912 88 90 6.0 10.0 0.00 0.00 0.00 5 1008.8
20260830162447 88 90 10.0 15.0 0.00 0.00 0.00 5 1008.8
20260830162355 88 112 8.0 12.0 0.00 0.00 0.00 5 1009.0
20260830162043 88 112 9.0 13.0 0.00 0.00 0.00 5 1008.9
20260830161604 88 112 11.0 17.0 0.00 0.00 0.00 5 1009.0
20260830161531 88 112 11.0 15.0 0.00 0.00 0.00 5 1008.7
20260830161137 88 90 9.0 15.0 0.00 0.00 0.00 5 1009.0
20260830160648 88 90 11.0 15.0 0.00 0.00 0.00 5 1008.8
20260830160215 88 112 10.0 15.0 0.00 0.00 0.00 5 1008.9
20260830155751 88 112 10.0 15.0 0.00 0.00 0.00 5 1009.0
20260830155456 88 90 10.0 15.0 0.00 0.00 0.00 5 1009.0
20260830155037 89 67 12.0 19.0 0.00 0.00 0.00 5 1009.1
20260830154618 89 112 10.0 15.0 0.00 0.00 0.00 5 1009.1
20260830154135 89 90 12.0 17.0 0.00 0.00 0.00 5 1009.2
20260830153717 89 112 9.0 13.0 0.00 0.00 0.00 5 1009.2
20260830153252 89 112 8.0 11.0 0.00 0.00 0.00 5 1009.3
20260830152757 89 90 9.0 15.0 0.00 0.00 0.00 5 1009.2
20260830152402 89 90 9.0 13.0 0.00 0.00 0.00 5 1009.2
20260830151943 89 67 10.0 15.0 0.00 0.00 0.00 5 1009.4
20260830151524 89 112 8.0 13.0 0.00 0.00 0.00 5 1009.5
20260830151040 89 112 7.0 10.0 0.00 0.00 0.00 5 1009.5
20260830150624 89 112 9.0 12.0 0.00 0.00 0.00 5 1009.5
20260830150158 89 112 6.0 10.0 0.00 0.00 0.00 5 1009.5
20260830145704 89 112 10.0 15.0 0.00 0.00 0.00 5 1009.8
20260830145333 89 90 9.0 13.0 0.00 0.00 0.00 5 1009.7
20260830145249 89 45 9.0 15.0 0.00 0.00 0.00 5 1009.7
20260830144857 89 112 9.0 12.0 0.00 0.00 0.00 5 1009.8
20260830144452 89 90 9.0 12.0 0.00 0.00 0.00 5 1009.8
20260830144355 89 67 9.0 18.0 0.00 0.00 0.00 5 1009.8
20260830144013 88 67 8.0 11.0 0.00 0.00 0.00 5 1009.8
20260830143528 89 112 9.0 15.0 0.00 0.00 0.00 5 1009.9
20260830143113 89 112 9.0 12.0 0.00 0.00 0.00 5 1009.9
20260830142658 89 112 9.0 15.0 0.00 0.00 0.00 5 1010.0
20260830142257 89 67 9.0 15.0 0.00 0.00 0.00 5 1010.0
20260830141857 89 90 10.0 15.0 0.00 0.00 0.00 4 1010.2
20260830141457 89 67 7.0 12.0 0.00 0.00 0.00 5 1010.2
20260830141401 88 67 9.0 15.0 0.00 0.00 0.00 5 1010.2
20260830141019 88 135 10.0 13.0 0.00 0.00 0.00 5 1010.2
20260830140534 89 135 9.0 12.0 0.00 0.00 0.00 5 1010.3
20260830140119 88 90 10.0 17.0 0.00 0.00 0.00 5 1010.2
20260830135708 87 90 9.0 15.0 0.00 0.00 0.00 5 1010.5
20260830135533 87 90 9.0 15.0 0.00 0.00 0.00 5 1010.5
20260830135341 87 67 9.0 12.0 0.00 0.00 0.00 6 1010.6
20260830135040 87 67 12.0 18.0 0.00 0.00 0.00 6 1010.7
20260830134615 86 90 11.0 15.0 0.00 0.00 0.00 6 1010.7
20260830134449 86 67 9.0 17.0 0.00 0.00 0.00 6 1010.7
20260830134155 86 112 12.0 18.0 0.00 0.00 0.00 6 1010.8
20260830133655 85 90 12.0 17.0 0.00 0.00 0.00 6 1010.8
20260830133620 85 90 12.0 17.0 0.00 0.00 0.00 6 1010.8
20260830133205 86 112 9.0 13.0 0.00 0.00 0.00 6 1010.7
20260830132759 85 90 12.0 19.0 0.00 0.00 0.00 6 1010.9
20260830132754 85 90 12.0 19.0 0.00 0.00 0.00 6 1010.9
20260830132509 85 45 11.0 15.0 0.00 0.00 0.00 7 1010.9
20260830132414 85 45 11.0 15.0 0.00 0.00 0.00 7 1010.9
20260830131918 84 112 12.0 17.0 0.00 0.00 0.00 7 1011.1
20260830131546 84 90 12.0 18.0 0.00 0.00 0.00 7 1011.2
20260830131445 85 45 10.0 19.0 0.00 0.00 0.00 7 1011.1
20260830131020 84 90 10.0 12.0 0.00 0.00 0.00 7 1011.1
20260830130649 84 112 9.0 13.0 0.00 0.00 0.00 7 1011.3
20260830130605 83 90 12.0 19.0 0.00 0.00 0.00 7 1011.2
20260830130157 84 67 11.0 15.0 0.00 0.00 0.00 7 1011.4
20260830125705 83 45 12.0 17.0 0.00 0.00 0.00 7 1011.5
20260830125548 83 45 12.0 17.0 0.00 0.00 0.00 7 1011.5
20260830125446 84 90 9.0 15.0 0.00 0.00 0.00 7 1011.6
20260830125030 83 67 11.0 19.0 0.00 0.00 0.00 7 1011.4
20260830124615 84 112 11.0 17.0 0.00 0.00 0.00 7 1011.5
20260830124544 83 135 9.0 12.0 0.00 0.00 0.00 7 1011.5
20260830124118 83 90 11.0 18.0 0.00 0.00 0.00 7 1011.6
20260830123701 83 67 13.0 18.0 0.00 0.00 0.00 7 1011.6
20260830123630 83 67 13.0 18.0 0.00 0.00 0.00 7 1011.6
20260830123201 84 135 8.0 13.0 0.00 0.00 0.00 7 1011.8
20260830122711 83 90 14.0 17.0 0.00 0.00 0.00 7 1011.8
20260830122423 83 112 11.0 18.0 0.00 0.00 0.00 7 1011.8